Location: D�pe
(52.6057°N, 8.1808°E)
Time: 01:47:19
(UTC+00:00)

Cosmos 1110 Rocket - Pass Details

Date: 29 October 2020
Orbit: 753 x 780 km, 74.0° (Epoch: 23 November)

Event Time Altitude Azimuth Distance (km) Brightness Sun altitude
Rises 16:54:28 0° 203° (SSW) 3,228 7.8 -8.4°
Reaches altitude 10° 16:56:50 10° 204° (SSW) 2,302 7.0 -8.8°
Maximum altitude 17:02:04 90° 125° (SE) 770 4.0 -9.6°
Drops below altitude 10° 17:07:18 10° 26° (NNE) 2,301 6.1 -10.3°
Sets 17:09:40 0° 26° (NNE) 3,227 6.9 -10.7°
